Year,Month,Day,Hour,Minute,Value (Times are PST for temperature in C)
2018,04,17,00,00,7.20
2018,04,17,00,01,7.20
2018,04,17,00,02,7.20
2018,04,17,00,03,7.20
2018,04,17,00,04,7.20
2018,04,17,00,05,7.20
2018,04,17,00,06,7.20
2018,04,17,00,07,7.20
2018,04,17,00,08,7.20
2018,04,17,00,09,7.20
2018,04,17,00,10,7.20
2018,04,17,00,11,7.20
2018,04,17,00,12,7.30
2018,04,17,00,13,7.30
2018,04,17,00,14,7.30
2018,04,17,00,15,7.30
2018,04,17,00,16,7.30
2018,04,17,00,17,7.30
2018,04,17,00,18,7.30
2018,04,17,00,19,7.30
2018,04,17,00,20,7.30
2018,04,17,00,21,7.30
2018,04,17,00,22,7.30
2018,04,17,00,23,7.30
2018,04,17,00,24,7.30
2018,04,17,00,25,7.20
2018,04,17,00,26,7.20
2018,04,17,00,27,7.20
2018,04,17,00,28,7.20
2018,04,17,00,29,7.20
2018,04,17,00,30,7.20
2018,04,17,00,31,7.20
2018,04,17,00,32,7.20
2018,04,17,00,33,7.20
2018,04,17,00,34,7.20
2018,04,17,00,35,7.20
2018,04,17,00,36,7.20
2018,04,17,00,37,7.20
2018,04,17,00,38,7.20
2018,04,17,00,39,7.20
2018,04,17,00,40,7.20
2018,04,17,00,41,7.20
2018,04,17,00,42,7.20
2018,04,17,00,43,7.20
2018,04,17,00,44,7.20
2018,04,17,00,45,7.20
2018,04,17,00,46,7.20
2018,04,17,00,47,7.20
2018,04,17,00,48,7.20
2018,04,17,00,49,7.20
2018,04,17,00,50,7.20
2018,04,17,00,51,7.20
2018,04,17,00,52,7.20
2018,04,17,00,53,7.20
2018,04,17,00,54,7.20
2018,04,17,00,55,7.20
2018,04,17,00,56,7.20
2018,04,17,00,57,7.20
2018,04,17,00,58,7.30
2018,04,17,00,59,7.30
2018,04,17,01,00,7.30
2018,04,17,01,01,7.30
2018,04,17,01,02,7.30
2018,04,17,01,03,7.30
2018,04,17,01,04,7.30
2018,04,17,01,05,7.30
2018,04,17,01,06,7.30
2018,04,17,01,07,7.30
2018,04,17,01,08,7.30
2018,04,17,01,09,7.30
2018,04,17,01,10,7.30
2018,04,17,01,11,7.30
2018,04,17,01,12,7.30
2018,04,17,01,13,7.30
2018,04,17,01,14,7.40
2018,04,17,01,15,7.40
2018,04,17,01,16,7.40
2018,04,17,01,17,7.40
2018,04,17,01,18,7.40
2018,04,17,01,19,7.40
2018,04,17,01,20,7.40
2018,04,17,01,21,7.40
2018,04,17,01,22,7.40
2018,04,17,01,23,7.40
2018,04,17,01,24,7.40
2018,04,17,01,25,7.40
2018,04,17,01,26,7.40
2018,04,17,01,27,7.40
2018,04,17,01,28,7.40
2018,04,17,01,29,7.40
2018,04,17,01,30,7.40
2018,04,17,01,31,7.40
2018,04,17,01,32,7.40
2018,04,17,01,33,7.40
2018,04,17,01,34,7.40
2018,04,17,01,35,7.40
2018,04,17,01,36,7.40
2018,04,17,01,37,7.40
2018,04,17,01,38,7.40
2018,04,17,01,39,7.40
2018,04,17,01,40,7.40
2018,04,17,01,41,7.40
2018,04,17,01,42,7.30
2018,04,17,01,43,7.30
2018,04,17,01,44,7.30
2018,04,17,01,45,7.30
2018,04,17,01,46,7.30
2018,04,17,01,47,7.30
2018,04,17,01,48,7.30
2018,04,17,01,49,7.30
2018,04,17,01,50,7.30
2018,04,17,01,51,7.30
2018,04,17,01,52,7.30
2018,04,17,01,53,7.30
2018,04,17,01,54,7.30
2018,04,17,01,55,7.30
2018,04,17,01,56,7.30
2018,04,17,01,57,7.30
2018,04,17,01,58,7.30
2018,04,17,01,59,7.30
2018,04,17,02,00,7.30
2018,04,17,02,01,7.30
2018,04,17,02,02,7.30
2018,04,17,02,03,7.30
2018,04,17,02,04,7.30
2018,04,17,02,05,7.30
2018,04,17,02,06,7.30
2018,04,17,02,07,7.30
2018,04,17,02,08,7.30
2018,04,17,02,09,7.30
2018,04,17,02,10,7.30
2018,04,17,02,11,7.30
2018,04,17,02,12,7.30
2018,04,17,02,13,7.30
2018,04,17,02,14,7.30
2018,04,17,02,15,7.30
2018,04,17,02,16,7.30
2018,04,17,02,17,7.20
2018,04,17,02,18,7.20
2018,04,17,02,19,7.20
2018,04,17,02,20,7.20
2018,04,17,02,21,7.20
2018,04,17,02,22,7.20
2018,04,17,02,23,7.20
2018,04,17,02,24,7.20
2018,04,17,02,25,7.20
2018,04,17,02,26,7.20
2018,04,17,02,27,7.20
2018,04,17,02,28,7.20
2018,04,17,02,29,7.20
2018,04,17,02,30,7.20
2018,04,17,02,31,7.20
2018,04,17,02,32,7.20
2018,04,17,02,33,7.20
2018,04,17,02,34,7.20
2018,04,17,02,35,7.20
2018,04,17,02,36,7.30
2018,04,17,02,37,7.30
2018,04,17,02,38,7.30
2018,04,17,02,39,7.30
2018,04,17,02,40,7.30
2018,04,17,02,41,7.30
2018,04,17,02,42,7.30
2018,04,17,02,43,7.30
2018,04,17,02,44,7.40
2018,04,17,02,45,7.40
2018,04,17,02,46,7.40
2018,04,17,02,47,7.40
2018,04,17,02,48,7.40
2018,04,17,02,49,7.40
2018,04,17,02,50,7.40
2018,04,17,02,51,7.40
2018,04,17,02,52,7.40
2018,04,17,02,53,7.40
2018,04,17,02,54,7.40
2018,04,17,02,55,7.30
2018,04,17,02,56,7.30
2018,04,17,02,57,7.30
2018,04,17,02,58,7.30
2018,04,17,02,59,7.30
2018,04,17,03,00,7.20
2018,04,17,03,01,7.20
2018,04,17,03,02,7.20
2018,04,17,03,03,7.20
2018,04,17,03,04,7.10
2018,04,17,03,05,7.10
2018,04,17,03,06,7.10
2018,04,17,03,07,7.00
2018,04,17,03,08,7.00
2018,04,17,03,09,6.90
2018,04,17,03,10,6.90
2018,04,17,03,11,6.80
2018,04,17,03,12,6.80
2018,04,17,03,13,6.80
2018,04,17,03,14,6.70
2018,04,17,03,15,6.70
2018,04,17,03,16,6.70
2018,04,17,03,17,6.70
2018,04,17,03,18,6.60
2018,04,17,03,19,6.60
2018,04,17,03,20,6.60
2018,04,17,03,21,6.50
2018,04,17,03,22,6.50
2018,04,17,03,23,6.50
2018,04,17,03,24,6.40
2018,04,17,03,25,6.40
2018,04,17,03,26,6.30
2018,04,17,03,27,6.30
2018,04,17,03,28,6.30
2018,04,17,03,29,6.20
2018,04,17,03,30,6.20
2018,04,17,03,31,6.20
2018,04,17,03,32,6.20
2018,04,17,03,33,6.10
2018,04,17,03,34,6.10
2018,04,17,03,35,6.10
2018,04,17,03,36,6.00
2018,04,17,03,37,6.00
2018,04,17,03,38,5.90
2018,04,17,03,39,5.90
2018,04,17,03,40,5.90
2018,04,17,03,41,5.80
2018,04,17,03,42,5.80
2018,04,17,03,43,5.80
2018,04,17,03,44,5.80
2018,04,17,03,45,5.70
2018,04,17,03,46,5.70
2018,04,17,03,47,5.70
2018,04,17,03,48,5.70
2018,04,17,03,49,5.70
2018,04,17,03,50,5.70
2018,04,17,03,51,5.60
2018,04,17,03,52,5.60
2018,04,17,03,53,5.60
2018,04,17,03,54,5.60
2018,04,17,03,55,5.60
2018,04,17,03,56,5.60
2018,04,17,03,57,5.60
2018,04,17,03,58,5.50
2018,04,17,03,59,5.50
2018,04,17,04,00,5.60
2018,04,17,04,01,5.60
2018,04,17,04,02,5.50
2018,04,17,04,03,5.60
2018,04,17,04,04,5.50
2018,04,17,04,05,5.50
2018,04,17,04,06,5.40
2018,04,17,04,07,5.40
2018,04,17,04,08,5.40
2018,04,17,04,09,5.40
2018,04,17,04,10,5.30
2018,04,17,04,11,5.30
2018,04,17,04,12,5.30
2018,04,17,04,13,5.30
2018,04,17,04,14,5.30
2018,04,17,04,15,5.30
2018,04,17,04,16,5.20
2018,04,17,04,17,5.20
2018,04,17,04,18,5.20
2018,04,17,04,19,5.20
2018,04,17,04,20,5.20
2018,04,17,04,21,5.10
2018,04,17,04,22,5.10
2018,04,17,04,23,5.10
2018,04,17,04,24,5.10
2018,04,17,04,25,5.10
2018,04,17,04,26,5.00
2018,04,17,04,27,5.00
2018,04,17,04,28,4.90
2018,04,17,04,29,4.90
2018,04,17,04,30,4.90
2018,04,17,04,31,4.90
2018,04,17,04,32,4.90
2018,04,17,04,33,4.90
2018,04,17,04,34,4.90
2018,04,17,04,35,4.90
2018,04,17,04,36,4.80
2018,04,17,04,37,4.80
2018,04,17,04,38,4.80
2018,04,17,04,39,4.80
2018,04,17,04,40,4.80
2018,04,17,04,41,4.80
2018,04,17,04,42,4.80
2018,04,17,04,43,4.80
2018,04,17,04,44,4.80
2018,04,17,04,45,4.80
2018,04,17,04,46,4.80
2018,04,17,04,47,4.80
2018,04,17,04,48,4.70
2018,04,17,04,49,4.70
2018,04,17,04,50,4.70
2018,04,17,04,51,4.70
2018,04,17,04,52,4.70
2018,04,17,04,53,4.70
2018,04,17,04,54,4.70
2018,04,17,04,55,4.60
2018,04,17,04,56,4.60
2018,04,17,04,57,4.60
2018,04,17,04,58,4.60
2018,04,17,04,59,4.50
2018,04,17,05,00,4.50
2018,04,17,05,01,4.50
2018,04,17,05,02,4.50
2018,04,17,05,03,4.50
2018,04,17,05,04,4.50
2018,04,17,05,05,4.50
2018,04,17,05,06,4.50
2018,04,17,05,07,4.50
2018,04,17,05,08,4.50
2018,04,17,05,09,4.50
2018,04,17,05,10,4.40
2018,04,17,05,11,4.40
2018,04,17,05,12,4.40
2018,04,17,05,13,4.40
2018,04,17,05,14,4.40
2018,04,17,05,15,4.40
2018,04,17,05,16,4.40
2018,04,17,05,17,4.30
2018,04,17,05,18,4.30
2018,04,17,05,19,4.30
2018,04,17,05,20,4.30
2018,04,17,05,21,4.30
2018,04,17,05,22,4.30
2018,04,17,05,23,4.30
2018,04,17,05,24,4.30
2018,04,17,05,25,4.30
2018,04,17,05,26,4.20
2018,04,17,05,27,4.20
2018,04,17,05,28,4.20
2018,04,17,05,29,4.20
2018,04,17,05,30,4.20
2018,04,17,05,31,4.20
2018,04,17,05,32,4.20
2018,04,17,05,33,4.20
2018,04,17,05,34,4.20
2018,04,17,05,35,4.20
2018,04,17,05,36,4.20
2018,04,17,05,37,4.20
2018,04,17,05,38,4.20
2018,04,17,05,39,4.20
2018,04,17,05,40,4.20
2018,04,17,05,41,4.20
2018,04,17,05,42,4.20
2018,04,17,05,43,4.20
2018,04,17,05,44,4.20
2018,04,17,05,45,4.20
2018,04,17,05,46,4.20
2018,04,17,05,47,4.20
2018,04,17,05,48,4.20
2018,04,17,05,49,4.20
2018,04,17,05,50,4.20
2018,04,17,05,51,4.10
2018,04,17,05,52,4.10
2018,04,17,05,53,4.10
2018,04,17,05,54,4.10
2018,04,17,05,55,4.20
2018,04,17,05,56,4.20
2018,04,17,05,57,4.20
2018,04,17,05,58,4.20
2018,04,17,05,59,4.20
2018,04,17,06,00,4.20
2018,04,17,06,01,4.20
2018,04,17,06,02,4.10
2018,04,17,06,03,4.10
2018,04,17,06,04,4.20
2018,04,17,06,05,4.20
2018,04,17,06,06,4.20
2018,04,17,06,07,4.20
2018,04,17,06,08,4.10
2018,04,17,06,09,4.20
2018,04,17,06,10,4.20
2018,04,17,06,11,4.10
2018,04,17,06,12,4.10
2018,04,17,06,13,4.10
2018,04,17,06,14,4.20
2018,04,17,06,15,4.20
2018,04,17,06,16,4.10
2018,04,17,06,17,4.20
2018,04,17,06,18,4.20
2018,04,17,06,19,4.10
2018,04,17,06,20,4.10
2018,04,17,06,21,4.10
2018,04,17,06,22,4.10
2018,04,17,06,23,4.10
2018,04,17,06,24,4.10
2018,04,17,06,25,4.10
2018,04,17,06,26,4.10
2018,04,17,06,27,4.10
2018,04,17,06,28,4.10
2018,04,17,06,29,4.10
2018,04,17,06,30,4.10
2018,04,17,06,31,4.10
2018,04,17,06,32,4.10
2018,04,17,06,33,4.10
2018,04,17,06,34,4.10
2018,04,17,06,35,4.10
2018,04,17,06,36,4.10
2018,04,17,06,37,4.10
2018,04,17,06,38,4.10
2018,04,17,06,39,4.10
2018,04,17,06,40,4.10
2018,04,17,06,41,4.10
2018,04,17,06,42,4.10
2018,04,17,06,43,4.10
2018,04,17,06,44,4.10
2018,04,17,06,45,4.10
2018,04,17,06,46,4.10
2018,04,17,06,47,4.10
2018,04,17,06,48,4.10
2018,04,17,06,49,4.10
2018,04,17,06,50,4.10
2018,04,17,06,51,4.20
2018,04,17,06,52,4.20
2018,04,17,06,53,4.20
2018,04,17,06,54,4.20
2018,04,17,06,55,4.20
2018,04,17,06,56,4.30
2018,04,17,06,57,4.30
2018,04,17,06,58,4.30
2018,04,17,06,59,4.30
2018,04,17,07,00,4.30
2018,04,17,07,01,4.40
2018,04,17,07,02,4.40
2018,04,17,07,03,4.50
2018,04,17,07,04,4.50
2018,04,17,07,05,4.50
2018,04,17,07,06,4.60
2018,04,17,07,07,4.60
2018,04,17,07,08,4.60
2018,04,17,07,09,4.60
2018,04,17,07,10,4.60
2018,04,17,07,11,4.60
2018,04,17,07,12,4.60
2018,04,17,07,13,4.60
2018,04,17,07,14,4.70
2018,04,17,07,15,4.70
2018,04,17,07,16,4.70
2018,04,17,07,17,4.70
2018,04,17,07,18,4.70
2018,04,17,07,19,4.70
2018,04,17,07,20,4.70
2018,04,17,07,21,4.70
2018,04,17,07,22,4.70
2018,04,17,07,23,4.70
2018,04,17,07,24,4.70
2018,04,17,07,25,4.70
2018,04,17,07,26,4.80
2018,04,17,07,27,4.80
2018,04,17,07,28,4.80
2018,04,17,07,29,4.80
2018,04,17,07,30,4.80
2018,04,17,07,31,4.80
2018,04,17,07,32,4.80
2018,04,17,07,33,4.80
2018,04,17,07,34,4.80
2018,04,17,07,35,4.80
2018,04,17,07,36,4.90
2018,04,17,07,37,4.90
2018,04,17,07,38,4.90
2018,04,17,07,39,4.90
2018,04,17,07,40,4.90
2018,04,17,07,41,4.90
2018,04,17,07,42,4.90
2018,04,17,07,43,4.90
2018,04,17,07,44,4.90
2018,04,17,07,45,4.90
2018,04,17,07,46,4.90
2018,04,17,07,47,4.90
2018,04,17,07,48,4.90
2018,04,17,07,49,4.90
2018,04,17,07,50,5.00
2018,04,17,07,51,5.00
2018,04,17,07,52,5.00
2018,04,17,07,53,5.00
2018,04,17,07,54,5.10
2018,04,17,07,55,5.10
2018,04,17,07,56,5.10
2018,04,17,07,57,5.10
2018,04,17,07,58,5.20
2018,04,17,07,59,5.20
2018,04,17,08,00,5.20
2018,04,17,08,01,5.30
2018,04,17,08,02,5.30
2018,04,17,08,03,5.30
2018,04,17,08,04,5.30
2018,04,17,08,05,5.40
2018,04,17,08,06,5.40
2018,04,17,08,07,5.40
2018,04,17,08,08,5.50
2018,04,17,08,09,5.50
2018,04,17,08,10,5.50
2018,04,17,08,11,5.60
2018,04,17,08,12,5.60
2018,04,17,08,13,5.70
2018,04,17,08,14,5.70
2018,04,17,08,15,5.70
2018,04,17,08,16,5.80
2018,04,17,08,17,5.80
2018,04,17,08,18,5.80
2018,04,17,08,19,5.90
2018,04,17,08,20,5.90
2018,04,17,08,21,5.90
2018,04,17,08,22,6.00
2018,04,17,08,23,6.00
2018,04,17,08,24,6.00
2018,04,17,08,25,6.10
2018,04,17,08,26,6.10
2018,04,17,08,27,6.10
2018,04,17,08,28,6.20
2018,04,17,08,29,6.20
2018,04,17,08,30,6.20
2018,04,17,08,31,6.30
2018,04,17,08,32,6.30
2018,04,17,08,33,6.40
2018,04,17,08,34,6.50
2018,04,17,08,35,6.50
2018,04,17,08,36,6.60
2018,04,17,08,37,6.60
2018,04,17,08,38,6.70
2018,04,17,08,39,6.70
2018,04,17,08,40,6.80
2018,04,17,08,41,6.80
2018,04,17,08,42,6.80
2018,04,17,08,43,6.90
2018,04,17,08,44,6.90
2018,04,17,08,45,7.00
2018,04,17,08,46,7.10
2018,04,17,08,47,7.10
2018,04,17,08,48,7.10
2018,04,17,08,49,7.20
2018,04,17,08,50,7.20
2018,04,17,08,51,7.20
2018,04,17,08,52,7.30
2018,04,17,08,53,7.30
2018,04,17,08,54,7.30
2018,04,17,08,55,7.40
2018,04,17,08,56,7.40
2018,04,17,08,57,7.40
2018,04,17,08,58,7.50
2018,04,17,08,59,7.50
2018,04,17,09,00,7.60
2018,04,17,09,01,7.60
2018,04,17,09,02,7.60
2018,04,17,09,03,7.70
2018,04,17,09,04,7.70
2018,04,17,09,05,7.70
2018,04,17,09,06,7.70
2018,04,17,09,07,7.70
2018,04,17,09,08,7.70
2018,04,17,09,09,7.70
2018,04,17,09,10,7.70
2018,04,17,09,11,7.70
2018,04,17,09,12,7.70
2018,04,17,09,13,7.70
2018,04,17,09,14,7.70
2018,04,17,09,15,7.80
2018,04,17,09,16,7.80
2018,04,17,09,17,7.80
2018,04,17,09,18,7.90
2018,04,17,09,19,7.90
2018,04,17,09,20,7.90
2018,04,17,09,21,7.90
2018,04,17,09,22,8.00
2018,04,17,09,23,8.00
2018,04,17,09,24,8.10
2018,04,17,09,25,8.10
2018,04,17,09,26,8.20
2018,04,17,09,27,8.20
2018,04,17,09,28,8.30
2018,04,17,09,29,8.40
2018,04,17,09,30,8.40
2018,04,17,09,31,8.60
2018,04,17,09,32,8.70
2018,04,17,09,33,8.80
2018,04,17,09,34,8.90
2018,04,17,09,35,9.00
2018,04,17,09,36,9.10
2018,04,17,09,37,9.20
2018,04,17,09,38,9.30
2018,04,17,09,39,9.40
2018,04,17,09,40,9.50
2018,04,17,09,41,9.70
2018,04,17,09,42,9.80
2018,04,17,09,43,10.00
2018,04,17,09,44,10.10
2018,04,17,09,45,10.20
2018,04,17,09,46,10.30
2018,04,17,09,47,10.40
2018,04,17,09,48,10.50
2018,04,17,09,49,10.60
2018,04,17,09,50,10.60
2018,04,17,09,51,10.60
2018,04,17,09,52,10.60
2018,04,17,09,53,10.60
2018,04,17,09,54,10.70
2018,04,17,09,55,10.70
2018,04,17,09,56,10.70
2018,04,17,09,57,10.70
2018,04,17,09,58,10.70
2018,04,17,09,59,10.80
2018,04,17,10,00,10.80
2018,04,17,10,01,10.90
2018,04,17,10,02,11.00
2018,04,17,10,03,11.00
2018,04,17,10,04,11.10
2018,04,17,10,05,11.20
2018,04,17,10,06,11.20
2018,04,17,10,07,11.20
2018,04,17,10,08,11.20
2018,04,17,10,09,11.20
2018,04,17,10,10,11.20
2018,04,17,10,11,11.20
2018,04,17,10,12,11.30
2018,04,17,10,13,11.30
2018,04,17,10,14,11.30
2018,04,17,10,15,11.30
2018,04,17,10,16,11.40
2018,04,17,10,17,11.50
2018,04,17,10,18,11.50
2018,04,17,10,19,11.50
2018,04,17,10,20,11.60
2018,04,17,10,21,11.60
2018,04,17,10,22,11.70
2018,04,17,10,23,11.70
2018,04,17,10,24,11.70
2018,04,17,10,25,11.70
2018,04,17,10,26,11.60
2018,04,17,10,27,11.50
2018,04,17,10,28,11.50
2018,04,17,10,29,11.40
2018,04,17,10,30,11.40
2018,04,17,10,31,11.40
2018,04,17,10,32,11.30
2018,04,17,10,33,11.30
2018,04,17,10,34,11.20
2018,04,17,10,35,11.20
2018,04,17,10,36,11.20
2018,04,17,10,37,11.20
2018,04,17,10,38,11.30
2018,04,17,10,39,11.30
2018,04,17,10,40,11.40
2018,04,17,10,41,11.50
2018,04,17,10,42,11.60
2018,04,17,10,43,11.70
2018,04,17,10,44,11.70
2018,04,17,10,45,11.80
2018,04,17,10,46,11.80
2018,04,17,10,47,11.80
2018,04,17,10,48,11.80
2018,04,17,10,49,11.80
2018,04,17,10,50,11.70
2018,04,17,10,51,11.60
2018,04,17,10,52,11.50
2018,04,17,10,53,11.40
2018,04,17,10,54,11.20
2018,04,17,10,55,11.20
2018,04,17,10,56,11.10
2018,04,17,10,57,11.00
2018,04,17,10,58,10.90
2018,04,17,10,59,10.80
2018,04,17,11,00,10.70
2018,04,17,11,01,10.60
2018,04,17,11,02,10.60
2018,04,17,11,03,10.50
2018,04,17,11,04,10.50
2018,04,17,11,05,10.40
2018,04,17,11,06,10.40
2018,04,17,11,07,10.30
2018,04,17,11,08,10.40
2018,04,17,11,09,10.40
2018,04,17,11,10,10.40
2018,04,17,11,11,10.40
2018,04,17,11,12,10.50
2018,04,17,11,13,10.50
2018,04,17,11,14,10.60
2018,04,17,11,15,10.70
2018,04,17,11,16,10.80
2018,04,17,11,17,10.90
2018,04,17,11,18,11.00
2018,04,17,11,19,11.10
2018,04,17,11,20,11.20
2018,04,17,11,21,11.20
2018,04,17,11,22,11.10
2018,04,17,11,23,11.10
2018,04,17,11,24,11.10
2018,04,17,11,25,11.10
2018,04,17,11,26,11.10
2018,04,17,11,27,11.00
2018,04,17,11,28,11.00
2018,04,17,11,29,11.00
2018,04,17,11,30,11.00
2018,04,17,11,31,11.00
2018,04,17,11,32,11.00
2018,04,17,11,33,10.90
2018,04,17,11,34,10.90
2018,04,17,11,35,10.80
2018,04,17,11,36,10.80
2018,04,17,11,37,10.70
2018,04,17,11,38,10.70
2018,04,17,11,39,10.60
2018,04,17,11,40,10.50
2018,04,17,11,41,10.40
2018,04,17,11,42,10.40
2018,04,17,11,43,10.40
2018,04,17,11,44,10.30
2018,04,17,11,45,10.30
2018,04,17,11,46,10.30
2018,04,17,11,47,10.30
2018,04,17,11,48,10.30
2018,04,17,11,49,10.30
2018,04,17,11,50,10.30
2018,04,17,11,51,10.20
2018,04,17,11,52,10.30
2018,04,17,11,53,10.30
2018,04,17,11,54,10.30
2018,04,17,11,55,10.40
2018,04,17,11,56,10.40
2018,04,17,11,57,10.50
2018,04,17,11,58,10.60
2018,04,17,11,59,10.60
2018,04,17,12,00,10.70
2018,04,17,12,01,10.90
2018,04,17,12,02,11.00
2018,04,17,12,03,11.10
2018,04,17,12,04,11.20
2018,04,17,12,05,11.30
2018,04,17,12,06,11.30
2018,04,17,12,07,11.50
2018,04,17,12,08,11.60
2018,04,17,12,09,11.60
2018,04,17,12,10,11.60
2018,04,17,12,11,11.50
2018,04,17,12,12,11.50
2018,04,17,12,13,11.40
2018,04,17,12,14,11.30
2018,04,17,12,15,11.30
2018,04,17,12,16,11.40
2018,04,17,12,17,11.40
2018,04,17,12,18,11.50
2018,04,17,12,19,11.70
2018,04,17,12,20,11.80
2018,04,17,12,21,12.00
2018,04,17,12,22,12.10
2018,04,17,12,23,12.20
2018,04,17,12,24,12.20
2018,04,17,12,25,12.30
2018,04,17,12,26,12.40
2018,04,17,12,27,12.40
2018,04,17,12,28,12.50
2018,04,17,12,29,12.60
2018,04,17,12,30,12.60
2018,04,17,12,31,12.50
2018,04,17,12,32,12.60
2018,04,17,12,33,12.60
2018,04,17,12,34,12.70
2018,04,17,12,35,12.70
2018,04,17,12,36,12.70
2018,04,17,12,37,12.70
2018,04,17,12,38,12.70
2018,04,17,12,39,12.70
2018,04,17,12,40,12.70
2018,04,17,12,41,12.60
2018,04,17,12,42,12.60
2018,04,17,12,43,12.50
2018,04,17,12,44,12.40
2018,04,17,12,45,12.40
2018,04,17,12,46,12.30
2018,04,17,12,47,12.30
2018,04,17,12,48,12.20
2018,04,17,12,49,12.20
2018,04,17,12,50,12.20
2018,04,17,12,51,12.20
2018,04,17,12,52,12.20
2018,04,17,12,53,12.20
2018,04,17,12,54,12.10
2018,04,17,12,55,12.00
2018,04,17,12,56,12.00
2018,04,17,12,57,12.00
2018,04,17,12,58,11.90
2018,04,17,12,59,12.00
2018,04,17,13,00,12.00
2018,04,17,13,01,12.00
2018,04,17,13,02,12.10
2018,04,17,13,03,12.10
2018,04,17,13,04,12.20
2018,04,17,13,05,12.20
2018,04,17,13,06,12.20
2018,04,17,13,07,12.20
2018,04,17,13,08,12.30
2018,04,17,13,09,12.30
2018,04,17,13,10,12.30
2018,04,17,13,11,12.30
2018,04,17,13,12,12.30
2018,04,17,13,13,12.30
2018,04,17,13,14,12.40
2018,04,17,13,15,12.50
2018,04,17,13,16,12.60
2018,04,17,13,17,12.60
2018,04,17,13,18,12.60
2018,04,17,13,19,12.70
2018,04,17,13,20,12.70
2018,04,17,13,21,12.70
2018,04,17,13,22,12.70
2018,04,17,13,23,12.80
2018,04,17,13,24,12.90
2018,04,17,13,25,13.00
2018,04,17,13,26,13.10
2018,04,17,13,27,13.20
2018,04,17,13,28,13.20
2018,04,17,13,29,13.20
2018,04,17,13,30,13.20
2018,04,17,13,31,13.30
2018,04,17,13,32,13.30
2018,04,17,13,33,13.30
2018,04,17,13,34,13.30
2018,04,17,13,35,13.20
2018,04,17,13,36,13.10
2018,04,17,13,37,13.10
2018,04,17,13,38,13.00
2018,04,17,13,39,13.00
2018,04,17,13,40,13.00
2018,04,17,13,41,13.00
2018,04,17,13,42,13.10
2018,04,17,13,43,13.10
2018,04,17,13,44,13.20
2018,04,17,13,45,13.30
2018,04,17,13,46,13.40
2018,04,17,13,47,13.50
2018,04,17,13,48,13.60
2018,04,17,13,49,13.60
2018,04,17,13,50,13.70
2018,04,17,13,51,13.80
2018,04,17,13,52,13.80
2018,04,17,13,53,13.80
2018,04,17,13,54,13.80
2018,04,17,13,55,13.80
2018,04,17,13,56,13.80
2018,04,17,13,57,13.80
2018,04,17,13,58,13.80
2018,04,17,13,59,13.70
2018,04,17,14,00,13.70
2018,04,17,14,01,13.70
2018,04,17,14,02,13.70
2018,04,17,14,03,13.70
2018,04,17,14,04,13.70
2018,04,17,14,05,13.70
2018,04,17,14,06,13.60
2018,04,17,14,07,13.60
2018,04,17,14,08,13.60
2018,04,17,14,09,13.60
2018,04,17,14,10,13.60
2018,04,17,14,11,13.60
2018,04,17,14,12,13.60
2018,04,17,14,13,13.50
2018,04,17,14,14,13.60
2018,04,17,14,15,13.50
2018,04,17,14,16,13.50
2018,04,17,14,17,13.50
2018,04,17,14,18,13.50
2018,04,17,14,19,13.40
2018,04,17,14,20,13.40
2018,04,17,14,21,13.40
2018,04,17,14,22,13.40
2018,04,17,14,23,13.40
2018,04,17,14,24,13.40
2018,04,17,14,25,13.50
2018,04,17,14,26,13.50
2018,04,17,14,27,13.50
2018,04,17,14,28,13.60
2018,04,17,14,29,13.70
2018,04,17,14,30,13.70
2018,04,17,14,31,13.80
2018,04,17,14,32,13.80
2018,04,17,14,33,13.80
2018,04,17,14,34,13.90
2018,04,17,14,35,13.90
2018,04,17,14,36,13.90
2018,04,17,14,37,14.00
2018,04,17,14,38,14.00
2018,04,17,14,39,14.00
2018,04,17,14,40,14.00
2018,04,17,14,41,14.10
2018,04,17,14,42,14.00
2018,04,17,14,43,14.00
2018,04,17,14,44,14.00
2018,04,17,14,45,14.00
2018,04,17,14,46,13.90
2018,04,17,14,47,13.80
2018,04,17,14,48,13.60
2018,04,17,14,49,13.40
2018,04,17,14,50,13.20
2018,04,17,14,51,13.10
2018,04,17,14,52,13.00
2018,04,17,14,53,12.90
2018,04,17,14,54,12.80
2018,04,17,14,55,12.70
2018,04,17,14,56,12.60
2018,04,17,14,57,12.50
2018,04,17,14,58,12.40
2018,04,17,14,59,12.50
2018,04,17,15,00,12.50
2018,04,17,15,01,12.40
2018,04,17,15,02,12.30
2018,04,17,15,03,12.30
2018,04,17,15,04,12.30
2018,04,17,15,05,12.20
2018,04,17,15,06,12.20
2018,04,17,15,07,12.20
2018,04,17,15,08,12.10
2018,04,17,15,09,12.10
2018,04,17,15,10,12.00
2018,04,17,15,11,12.00
2018,04,17,15,12,12.00
2018,04,17,15,13,12.00
2018,04,17,15,14,12.10
2018,04,17,15,15,12.20
2018,04,17,15,16,12.20
2018,04,17,15,17,12.20
2018,04,17,15,18,12.10
2018,04,17,15,19,12.00
2018,04,17,15,20,11.90
2018,04,17,15,21,11.80
2018,04,17,15,22,11.70
2018,04,17,15,23,11.60
2018,04,17,15,24,11.60
2018,04,17,15,25,11.60
2018,04,17,15,26,11.60
2018,04,17,15,27,11.60
2018,04,17,15,28,11.60
2018,04,17,15,29,11.60
2018,04,17,15,30,11.50
2018,04,17,15,31,11.50
2018,04,17,15,32,11.40
2018,04,17,15,33,11.40
2018,04,17,15,34,11.30
2018,04,17,15,35,11.30
2018,04,17,15,36,11.30
2018,04,17,15,37,11.30
2018,04,17,15,38,11.20
2018,04,17,15,39,11.20
2018,04,17,15,40,11.20
2018,04,17,15,41,11.10
2018,04,17,15,42,11.10
2018,04,17,15,43,11.10
2018,04,17,15,44,11.10
2018,04,17,15,45,11.10
2018,04,17,15,46,11.10
2018,04,17,15,47,11.10
2018,04,17,15,48,11.10
2018,04,17,15,49,11.10
2018,04,17,15,50,11.10
2018,04,17,15,51,11.10
2018,04,17,15,52,11.10
2018,04,17,15,53,11.10
2018,04,17,15,54,11.20
2018,04,17,15,55,11.10
2018,04,17,15,56,11.10
2018,04,17,15,57,11.00
2018,04,17,15,58,11.00
2018,04,17,15,59,10.90
2018,04,17,16,00,10.90
2018,04,17,16,01,10.90
2018,04,17,16,02,10.80
2018,04,17,16,03,10.80
2018,04,17,16,04,10.80
2018,04,17,16,05,10.80
2018,04,17,16,06,10.70
2018,04,17,16,07,10.70
2018,04,17,16,08,10.70
2018,04,17,16,09,10.60
2018,04,17,16,10,10.60
2018,04,17,16,11,10.60
2018,04,17,16,12,10.60
2018,04,17,16,13,10.60
2018,04,17,16,14,10.60
2018,04,17,16,15,10.60
2018,04,17,16,16,10.60
2018,04,17,16,17,10.60
2018,04,17,16,18,10.60
2018,04,17,16,19,10.70
2018,04,17,16,20,10.70
2018,04,17,16,21,10.70
2018,04,17,16,22,10.70
2018,04,17,16,23,10.70
2018,04,17,16,24,10.70
2018,04,17,16,25,10.70
2018,04,17,16,26,10.70
2018,04,17,16,27,10.70
2018,04,17,16,28,10.70
2018,04,17,16,29,10.70
2018,04,17,16,30,10.70
2018,04,17,16,31,10.70
2018,04,17,16,32,10.70
2018,04,17,16,33,10.70
2018,04,17,16,34,10.70
2018,04,17,16,35,10.70
2018,04,17,16,36,10.70
2018,04,17,16,37,10.70
2018,04,17,16,38,10.70
2018,04,17,16,39,10.70
2018,04,17,16,40,10.70
2018,04,17,16,41,10.80
2018,04,17,16,42,10.70
2018,04,17,16,43,10.70
2018,04,17,16,44,10.70
2018,04,17,16,45,10.70
2018,04,17,16,46,10.80
2018,04,17,16,47,10.80
2018,04,17,16,48,10.80
2018,04,17,16,49,10.80
2018,04,17,16,50,10.80
2018,04,17,16,51,10.90
2018,04,17,16,52,10.90
2018,04,17,16,53,10.90
2018,04,17,16,54,10.90
2018,04,17,16,55,10.90
2018,04,17,16,56,10.90
2018,04,17,16,57,10.90
2018,04,17,16,58,10.90
2018,04,17,16,59,10.90
2018,04,17,17,00,10.90
2018,04,17,17,01,10.90
2018,04,17,17,02,10.90
2018,04,17,17,03,11.00
2018,04,17,17,04,10.90
2018,04,17,17,05,10.90
2018,04,17,17,06,10.90
2018,04,17,17,07,10.90
2018,04,17,17,08,11.00
2018,04,17,17,09,11.00
2018,04,17,17,10,11.00
2018,04,17,17,11,11.00
2018,04,17,17,12,11.10
2018,04,17,17,13,11.10
2018,04,17,17,14,11.10
2018,04,17,17,15,11.00
2018,04,17,17,16,11.00
2018,04,17,17,17,11.00
2018,04,17,17,18,10.90
2018,04,17,17,19,10.90
2018,04,17,17,20,10.90
2018,04,17,17,21,10.80
2018,04,17,17,22,10.80
2018,04,17,17,23,10.80
2018,04,17,17,24,10.80
2018,04,17,17,25,10.80
2018,04,17,17,26,10.80
2018,04,17,17,27,10.70
2018,04,17,17,28,10.70
2018,04,17,17,29,10.70
2018,04,17,17,30,10.70
2018,04,17,17,31,10.60
2018,04,17,17,32,10.60
2018,04,17,17,33,10.60
2018,04,17,17,34,10.50
2018,04,17,17,35,10.50
2018,04,17,17,36,10.50
2018,04,17,17,37,10.50
2018,04,17,17,38,10.50
2018,04,17,17,39,10.40
2018,04,17,17,40,10.40
2018,04,17,17,41,10.40
2018,04,17,17,42,10.30
2018,04,17,17,43,10.30
2018,04,17,17,44,10.30